Weather History for Dickinson, ND

Change the Weather History Date:

Tuesday, September 25, 2012

  Actual Average Record
Temperature  
Mean Temperature 59 °F 53 °F  
Max Temperature 78 °F 67 °F 89 °F (1990)
Min Temperature 39 °F 39 °F 12 °F (1926)
Degree Days  
Heating Degree Days 6 13  
Month to date heating degree days 171 199  
Since 1 July heating degree days 211 285  
Cooling Degree Days 0 0  
Month to date cooling degree days 33 30  
Year to date cooling degree days 587 416  
Growing Degree Days 9 (Base 50)    
Moisture  
Dew Point 37 °F    
Average Humidity 48    
Maximum Humidity 70    
Minimum Humidity 26    
Precipitation  
Precipitation 0.00 in 0.05 in 1.15 in (1959)
Month to date precipitation 0.16 1.23  
Year to date precipitation 8.58 13.52  
Sea Level Pressure  
Sea Level Pressure 29.91 in    
Wind  
Wind Speed 4 mph (ENE)    
Max Wind Speed 10 mph    
Max Gust Speed 13 mph    
Visibility 10 miles    
Events      
T = Trace of Precipitation, MM = Missing Value Source: NWS Daily Summary

Daily Weather History Graph

Daily Weather History Graph

Search for Another Location

Airport:

Trip Planner

Search our weather history database for the weather conditions in past years. The results will help you decide how hot, cold, wet, or windy it might be!

Date:

Astronomy

Sep. 25, 2012 Rise Set
Actual Time 6:42 AM MDT 6:41 PM MDT
Civil Twilight 6:12 AM MDT 7:11 PM MDT
Nautical Twilight 5:36 AM MDT 7:47 PM MDT
Astronomical Twilight 5:00 AM MDT 8:23 PM MDT
Moon 4:20 PM MDT (9/25) 1:51 AM MDT (9/25)
Length of Visible Light 12h 59m
Length of Day
11h 59m
Waxing Gibbous, 80% of the Moon is Illuminated
Sep 25
Waxing Gibbous
Sep 29
Full
Oct 8
Last Quarter
Oct 15
New
Oct 21
First Quarter

Hourly Weather History & Observations

Time (MDT) Temp. Windchill Dew Point Humidity Pressure Visibility Wind Dir Wind Speed Gust Speed Precip Events Conditions
12:56 AM 48.0 °F - 34.0 °F 58% 29.87 in 10.0 mi Calm Calm - N/A   Clear
1:56 AM 48.0 °F - 33.1 °F 56% 29.87 in 10.0 mi NW 4.6 mph - N/A   Clear
2:56 AM 45.0 °F 43.5 °F 33.1 °F 63% 29.87 in 10.0 mi WNW 3.5 mph - N/A   Clear
3:56 AM 44.1 °F - 33.1 °F 65% 29.87 in 10.0 mi Calm Calm - N/A   Clear
5:56 AM 42.1 °F - 33.1 °F 70% 29.89 in 10.0 mi Calm Calm - N/A   Clear
6:56 AM 41.0 °F - 32.0 °F 70% 29.91 in 10.0 mi Calm Calm - N/A   Clear
7:56 AM 48.0 °F - 39.0 °F 71% 29.91 in 10.0 mi Calm Calm - N/A   Clear
8:56 AM 57.9 °F - 39.0 °F 49% 29.91 in 10.0 mi Calm Calm - N/A   Clear
9:56 AM 64.9 °F - 39.0 °F 39% 29.91 in 10.0 mi Calm Calm - N/A   Clear
10:56 AM 71.1 °F - 41.0 °F 34% 29.91 in 10.0 mi Calm Calm - N/A   Clear
11:56 AM 73.9 °F - 41.0 °F 30% 29.91 in 10.0 mi Variable 3.5 mph - N/A   Clear
1:56 PM 75.9 °F - 39.9 °F 27% 29.89 in 10.0 mi Variable 3.5 mph - N/A   Clear
2:56 PM 77.0 °F - 39.9 °F 26% 29.89 in 10.0 mi Calm Calm - N/A   Clear
3:56 PM 77.0 °F - 39.9 °F 26% 29.89 in 10.0 mi East 6.9 mph - N/A   Clear
4:56 PM 75.0 °F - 39.9 °F 28% 29.90 in 10.0 mi ENE 9.2 mph - N/A   Clear
5:56 PM 71.1 °F - 39.9 °F 32% 29.92 in 10.0 mi ENE 8.1 mph - N/A   Clear
6:56 PM 62.1 °F - 39.0 °F 43% 29.95 in 10.0 mi ENE 8.1 mph - N/A   Clear
9:56 PM 55.9 °F - 37.0 °F 49% 29.96 in 10.0 mi SE 3.5 mph - N/A   Clear
10:56 PM 51.1 °F - 36.0 °F 56% 29.96 in 10.0 mi East 3.5 mph - N/A   Clear
11:56 PM 48.9 °F - 36.0 °F 61% 29.97 in 10.0 mi SE 3.5 mph - N/A   Clear